FENGYUN 1C DEB, 29907

Orbit data source: Space-Track

FENGYUN 1C DEB, 29907 is space debris in SSO originally from a launch on Mon, 10 May 1999 UTC launched from the Taiyaun Space Center, China (TSC). Fengyun 1C debris stems from the Chinese weather satellite Fengyun-1C, which was intentionally destroyed by a Chinese anti-satellite missile in 2007. This event dramatically increased the amount of space debris, with thousands of trackable fragments posing hazards to satellites and human spaceflight. The Fengyun 1C debris cloud has become a focal point in discussions about space sustainability and the need for international regulations to prevent the creation of new debris.

Loading next visibility...
Identifier
29907, 1999-025HD
Orbit
SSO
Country
Flag of CNCN / PRC
Related business
Manufacturer
Unknown
Mission
Spacecraft
Bus & Motor
Unknown
Mass
Unknown
Launch date (UTC)
1999-05-10 (27 years ago)
Launch vehicle
Unknown
Launch site
Taiyaun Space Center, China (TSC)
Object type
Payload
Rocket body
Debris
Shape & HBR
Unknown shape, 0.1 m
Radar Cross Section
Small (<0.1 m²)

Expand to show TLE details & history
Last TLE update: 15 hours ago

TLE from 15 hours ago
0 FENGYUN 1C DEB
1 29907U 99025HD  26121.14630487  .00002589  00000-0  13829-2 0  9996
2 29907  99.0973 194.9570 0083099 217.0090 172.8988 14.12388468985661
Epoch: 2026-05-01T03:30Z
TLE epoch observation values (Epoch: 2026-05-01T03:30:40.740Z)
Latitude
29.65831°
Longitude
-81.99956°
Altitude
914.518 km
Speed
7.367 km/s
True Right ascension
12h 39m 00s
True Declination
29° 30' 50"
Sunlit
Object was in full shadow at epoch
Visualization orbit readout
Latitude
Unknown
Longitude
Unknown
Altitude
Unknown
Speed
Unknown
Apparent Right ascension
Unknown
Apparent Declination
Unknown
Sunlit
N/A
Visualization observer readout
Local Sidereal Time
01:45:54
Azimuth
Unknown
Elevation
Unknown
Doppler factor
Unknown
Orbital elements
Apogee altitude
908.449 km
Perigee altitude
788.346 km
Semi-major axis
7,226.534 km
Eccentricity
0.00831
Inclination
99.0973°
RAAN
194.957°
Arg. of periapsis
217.009°
True anomaly
173.01532°
Mean anomaly
172.8988°
Eccentric anomaly
172.95718°
Mean motion
3.53304 °/min
Orbital period
101.9 mins
BSTAR
0.0013829
Loading maneuver chart data...
Computing Atmospheric mass density...
Loading historical data...
Loading historical data...
Loading historical data...
Loading historical data...
Loading historical data...
Loading historical data...
Loading historical data...

Documentation

Showing up to 5 results
|